Home > Weather > Vallejo > Past weeks

Flag for USA Past Weather in Vallejo, California, USA — Yesterday and Last 2 Weeks

Now
76 °F

Sunny.


Feels Like: 78 °F
Forecast: 56 / 79 °F
Wind: 15 mph from Southwest

Location: Napa County Airport

Current Time: Jul 24, 2016 at 5:15:57 PM

Latest Report: Jul 24, 2016 at 4:54 PM


Visibility: 10 mi

Pressure: 29.80 "Hg

Humidity: 48%

Dew Point: 55 °F

Location of VallejoLocation

Past Weather in Vallejo — Graph

°F

Vallejo Temperature Yesterday

Maximum temperature yesterday: 88 °F (at 3:54 PM)
Minimum temperature yesterday: 51 °F (at 5:54 AM)
Average temperature yesterday: 68 °F

High & Low Weather Summary for the Past Weeks

 TemperatureHumidityPressure
High88 °F (Jul 13, 3:54 PM)100% (Jul 20, 5:54 AM)30.09 "Hg (Jul 20, 5:54 AM)
Low46 °F (Jul 22, 5:54 AM)27% (Jul 10, 3:54 PM)29.79 "Hg (Jul 23, 6:54 PM)
Average64 °F70%29.94 "Hg
* Reported Jul 9 3:54 PM — Jul 24 3:54 PM, Vallejo, Weather by CustomWeather, © 2016

Note: Actual official high and low records may vary slightly from our data, if they occured in-between our weather recording intervals... More about our weather records

Advertising

Vallejo Weather History for the Previous 24 Hours

Scroll right to see more
 ConditionsComfort  
Time TempWeatherWind HumidityBarometerVisibility
3:54 PM
Sun, Jul 24
78 °FSunny.16 mph46%29.81 "Hg10 mi
2:54 PM79 °FSunny.12 mph47%29.82 "Hg10 mi
1:54 PM82 °FSunny.10 mph41%29.83 "Hg10 mi
12:54 PM78 °FSunny.8 mph48%29.83 "Hg10 mi
11:54 AM77 °FSunny.8 mph50%29.84 "Hg10 mi
10:54 AM73 °FSunny.9 mph55%29.84 "Hg10 mi
9:54 AM69 °FSunny.7 mph63%29.84 "Hg10 mi
8:54 AM65 °FSunny.3 mph73%29.84 "Hg10 mi
7:54 AM62 °FSunny.5 mph80%29.83 "Hg10 mi
6:54 AM56 °FClear.No wind90%29.82 "Hg10 mi
5:54 AM53 °FClear.3 mph93%29.81 "Hg9 mi
4:54 AM55 °FClear.3 mph90%29.80 "Hg10 mi
3:54 AM57 °FClear.6 mph87%29.80 "Hg10 mi
2:54 AM58 °FClear.6 mph90%29.80 "Hg10 mi
1:54 AM60 °FClear.No wind86%29.81 "Hg10 mi
12:54 AM60 °FClear.No wind83%29.82 "Hg10 mi
11:54 PM
Sat, Jul 23
60 °FClear.7 mph86%29.83 "Hg10 mi
10:54 PM61 °FClear.5 mph83%29.83 "Hg10 mi
9:54 PM63 °FClear.6 mph81%29.83 "Hg10 mi
8:54 PM67 °FSunny.6 mph68%29.81 "Hg10 mi
7:54 PM73 °FSunny.12 mph53%29.80 "Hg10 mi
6:54 PM79 °FSunny.14 mph44%29.79 "Hg10 mi
5:54 PM83 °FSunny.13 mph37%29.80 "Hg10 mi
Weather by CustomWeather, © 2016

See weather overviewHow to use our weather pages